Powrót do katalogu

COSMOS 2380

GLONASS

AktywnyNawigacjaMEO
NORAD 26989·PAYLOAD·🇷🇺 Russia

Wystrzelony Dec 1, 2001 z Baikonur Cosmodrome

Loading…

Następne Przeloty (najbliższe 24 godziny)

TLE

ŚwieżeSource: Space-Track

Epoka: Sep 11, 2026, 15:43 UTC

1 26989U 01053C   26254.65528182 -.00000028  00000-0  00000-0 0  9990
2 26989  64.1443  54.3634 0006135  54.3005 123.4339  2.13102693192852

Śledź COSMOS 2380 w czasie rzeczywistym z AllMySat

Download on the App Store